CZ-4 DEB, 29039

Orbit data source: Space-Track

CZ-4 DEB, 29039 is space debris in SSO originally from a launch on Thu, 14 Oct 1999 UTC launched from the Taiyaun Space Center, China (TSC). Debris objects in space refer to the collection of defunct objects orbiting the Earth. Examples of debris include non-operational satellites, rocket bodies, and fragments generated from explosions, collisions, or faulty payload assembly.

Loading next visibility...
Identifier
29039, 1999-057NJ
Orbit
SSO
Country
Flag of CNCN / PRC
Related business
Manufacturer
Unknown
Mission
Spacecraft
Bus & Motor
Unknown
Mass
Unknown
Launch date (UTC)
1999-10-14 (26 years ago)
Launch vehicle
Unknown
Launch site
Taiyaun Space Center, China (TSC)
Object type
Payload
Rocket body
Debris
Shape & HBR
Unknown shape, 0.1 m
Radar Cross Section
Small (<0.1 m²)

Expand to show TLE details & history
Last TLE update: 8 hours ago

TLE from 8 hours ago
0 CZ-4 DEB
1 29039U 99057NJ  25349.90159340  .00002980  00000-0  45320-3 0  9993
2 29039  98.3653  34.5349 0047418 195.7103 342.6817 14.74045057220481
Epoch: 2025-12-15T21:38Z
TLE epoch observation values (Epoch: 2025-12-15T21:38:17.669Z)
Latitude
1.64252°
Longitude
165.40806°
Altitude
619.186 km
Speed
7.566 km/s
True Right ascension
14h 19m 06s
True Declination
1° 37' 57"
Sunlit
Object was in daylight at epoch
Visualization orbit readout
Latitude
Unknown
Longitude
Unknown
Altitude
Unknown
Speed
Unknown
Apparent Right ascension
Unknown
Apparent Declination
Unknown
Sunlit
N/A
Visualization observer readout
Local Sidereal Time
03:49:35
Azimuth
Unknown
Elevation
Unknown
Doppler factor
Unknown
Orbital elements
Apogee altitude
678.558 km
Perigee altitude
611.951 km
Semi-major axis
7,023.391 km
Eccentricity
0.00474
Inclination
98.3653°
RAAN
34.5349°
Arg. of periapsis
195.7103°
True anomaly
342.51903°
Mean anomaly
342.6817°
Eccentric anomaly
342.60046°
Mean motion
3.68742 °/min
Orbital period
97.63 mins
BSTAR
0.0004532
Loading maneuver chart data...
Computing Atmospheric mass density...

Documentation

Showing up to 5 results
|